| time (UTC) | temp F | wind direction | speed knots | gust knots | rain 1hr in | rain 24hr in | rain mn in | humidity % | barometer mb |
| 20260507044014 | 51 | 313 | 0.0 | 0.0 | 0.00 | 0.27 | 0.00 | 90 | 1009.1 |
| 20260507043507 | 51 | 313 | 0.0 | 0.0 | 0.00 | 0.27 | 0.00 | 90 | 1008.9 |
| 20260507043024 | 51 | 313 | 0.0 | 0.0 | 0.00 | 0.27 | 0.00 | 89 | 1008.9 |
| 20260507042511 | 51 | 313 | 0.0 | 0.0 | 0.00 | 0.27 | 0.00 | 89 | 1008.8 |
| 20260507042009 | 52 | 313 | 0.0 | 0.0 | 0.00 | 0.27 | 0.00 | 88 | 1008.8 |
| 20260507041008 | 52 | 313 | 0.0 | 0.9 | 0.00 | 0.27 | 0.00 | 87 | 1008.7 |
| 20260507040511 | 52 | 313 | 0.0 | 0.9 | 0.00 | 0.27 | 0.00 | 87 | 1008.7 |
| 20260507035511 | 52 | 321 | 0.0 | 2.6 | 0.00 | 0.27 | 0.27 | 86 | 1008.5 |
| 20260507034526 | 52 | 313 | 0.9 | 2.6 | 0.00 | 0.27 | 0.27 | 86 | 1008.3 |
| 20260507034008 | 52 | 281 | 0.0 | 2.6 | 0.00 | 0.27 | 0.27 | 86 | 1008.5 |
| 20260507033508 | 52 | 29 | 0.0 | 1.7 | 0.00 | 0.27 | 0.27 | 87 | 1008.6 |
| 20260507033023 | 52 | 5 | 0.0 | 2.6 | 0.00 | 0.27 | 0.27 | 87 | 1008.8 |
| 20260507032509 | 52 | 352 | 0.0 | 2.6 | 0.00 | 0.27 | 0.27 | 85 | 1008.7 |
| 20260507032012 | 52 | 346 | 0.0 | 1.7 | 0.00 | 0.27 | 0.27 | 86 | 1008.8 |
| 20260507031525 | 52 | 351 | 0.0 | 0.9 | 0.00 | 0.27 | 0.27 | 87 | 1008.8 |
| 20260507031011 | 52 | 17 | 0.0 | 1.7 | 0.00 | 0.27 | 0.27 | 87 | 1008.7 |
| 20260507030513 | 52 | 17 | 0.0 | 1.7 | 0.00 | 0.27 | 0.27 | 84 | 1008.7 |
| 20260507030025 | 52 | 17 | 0.0 | 1.7 | 0.00 | 0.27 | 0.27 | 85 | 1008.6 |
| 20260507025513 | 52 | 17 | 0.0 | 3.5 | 0.00 | 0.27 | 0.27 | 84 | 1008.6 |
| 20260507025010 | 53 | 68 | 1.7 | 4.3 | 0.00 | 0.27 | 0.27 | 84 | 1008.3 |
| 20260507024529 | 53 | 34 | 1.7 | 5.2 | 0.00 | 0.27 | 0.27 | 86 | 1008.3 |
| 20260507024013 | 53 | 331 | 1.7 | 5.2 | 0.00 | 0.27 | 0.27 | 87 | 1008.1 |
| 20260507023511 | 53 | 324 | 0.9 | 4.3 | 0.00 | 0.27 | 0.27 | 87 | 1008.2 |
| 20260507023028 | 53 | 299 | 0.9 | 2.6 | 0.00 | 0.27 | 0.27 | 88 | 1008.5 |
| 20260507022513 | 54 | 329 | 0.9 | 4.3 | 0.01 | 0.27 | 0.27 | 89 | 1008.4 |
| 20260507022011 | 54 | 294 | 2.6 | 4.3 | 0.01 | 0.27 | 0.27 | 89 | 1008.2 |
| 20260507021524 | 54 | 288 | 0.9 | 3.5 | 0.01 | 0.27 | 0.27 | 89 | 1008.1 |
| 20260507020510 | 55 | 307 | 1.7 | 7.0 | 0.01 | 0.27 | 0.27 | 90 | 1007.7 |
| 20260507015508 | 55 | 348 | 0.0 | 1.7 | 0.01 | 0.27 | 0.27 | 91 | 1007.6 |
| 20260507015014 | 55 | 15 | 0.0 | 3.5 | 0.01 | 0.27 | 0.27 | 90 | 1007.5 |
| 20260507014527 | 56 | 25 | 0.9 | 3.5 | 0.01 | 0.27 | 0.27 | 90 | 1007.6 |
| 20260507014009 | 56 | 284 | 0.0 | 2.6 | 0.01 | 0.27 | 0.27 | 92 | 1007.7 |
| 20260507013508 | 56 | 316 | 1.7 | 2.6 | 0.01 | 0.27 | 0.27 | 92 | 1007.5 |
| 20260507013026 | 56 | 350 | 0.0 | 2.6 | 0.03 | 0.27 | 0.27 | 92 | 1007.6 |
| 20260507012511 | 56 | 305 | 0.0 | 2.6 | 0.02 | 0.26 | 0.26 | 93 | 1007.4 |
| 20260507012011 | 56 | 311 | 0.0 | 2.6 | 0.02 | 0.26 | 0.26 | 92 | 1007.3 |
| 20260507011531 | 56 | 259 | 0.0 | 0.0 | 0.02 | 0.26 | 0.26 | 92 | 1007.2 |
| 20260507011013 | 56 | 311 | 0.0 | 0.0 | 0.02 | 0.26 | 0.26 | 91 | 1007.1 |
| 20260507010509 | 57 | 311 | 0.0 | 1.7 | 0.02 | 0.26 | 0.26 | 90 | 1007.0 |
| 20260507010026 | 57 | 311 | 0.0 | 3.5 | 0.02 | 0.26 | 0.26 | 90 | 1007.2 |
| 20260507005517 | 57 | 289 | 0.0 | 4.3 | 0.02 | 0.26 | 0.26 | 90 | 1007.2 |
| 20260507005002 | 58 | 284 | 1.7 | 4.3 | 0.02 | 0.26 | 0.26 | 92 | 1007.1 |
| 20260507004510 | 58 | 5 | 0.0 | 1.7 | 0.02 | 0.26 | 0.26 | 92 | 1006.7 |
| 20260507004007 | 59 | 85 | 0.0 | 4.3 | 0.02 | 0.26 | 0.26 | 93 | 1006.8 |
| 20260507003511 | 59 | 23 | 0.0 | 7.0 | 0.02 | 0.26 | 0.26 | 93 | 1006.8 |
| 20260507003017 | 59 | 233 | 4.3 | 7.8 | 0.00 | 0.24 | 0.24 | 93 | 1006.4 |
| 20260507002507 | 59 | 171 | 3.5 | 8.7 | 0.00 | 0.24 | 0.24 | 93 | 1006.1 |
| 20260507002009 | 59 | 175 | 3.5 | 9.6 | 0.00 | 0.24 | 0.24 | 93 | 1006.2 |
| 20260507001519 | 59 | 172 | 3.5 | 9.6 | 0.00 | 0.24 | 0.24 | 93 | 1006.1 |
| 20260507001007 | 59 | 170 | 4.3 | 9.6 | 0.00 | 0.24 | 0.24 | 93 | 1005.9 |
| 20260507000510 | 59 | 198 | 4.3 | 8.7 | 0.00 | 0.24 | 0.24 | 93 | 1006.1 |
| 20260507000027 | 59 | 160 | 2.6 | 9.6 | 0.00 | 0.24 | 0.24 | 93 | 1006.1 |
| 20260506235507 | 59 | 201 | 6.1 | 9.6 | 0.00 | 0.24 | 0.24 | 93 | 1006.0 |
| 20260506235010 | 59 | 186 | 3.5 | 8.7 | 0.00 | 0.24 | 0.24 | 93 | 1005.9 |
| 20260506234524 | 59 | 174 | 4.3 | 7.8 | 0.00 | 0.24 | 0.24 | 93 | 1005.9 |
| 20260506234008 | 59 | 193 | 4.3 | 7.0 | 0.00 | 0.24 | 0.24 | 93 | 1005.8 |
| 20260506233508 | 59 | 178 | 3.5 | 10.4 | 0.00 | 0.24 | 0.24 | 93 | 1005.8 |
| 20260506233012 | 59 | 179 | 4.3 | 10.4 | 0.00 | 0.24 | 0.24 | 93 | 1005.7 |
| 20260506232509 | 59 | 161 | 4.3 | 9.6 | 0.00 | 0.24 | 0.24 | 93 | 1005.8 |
| 20260506232009 | 59 | 196 | 4.3 | 10.4 | 0.00 | 0.24 | 0.24 | 93 | 1005.8 |
| 20260506231517 | 59 | 151 | 3.5 | 10.4 | 0.00 | 0.24 | 0.24 | 93 | 1005.8 |
| 20260506231008 | 59 | 161 | 2.6 | 7.0 | 0.00 | 0.24 | 0.24 | 93 | 1005.8 |
| 20260506230509 | 59 | 205 | 4.3 | 9.6 | 0.00 | 0.24 | 0.24 | 92 | 1005.7 |
| 20260506230021 | 59 | 165 | 4.3 | 9.6 | 0.00 | 0.24 | 0.24 | 92 | 1005.6 |
| 20260506225509 | 59 | 150 | 3.5 | 8.7 | 0.01 | 0.24 | 0.24 | 92 | 1005.6 |
| 20260506225009 | 59 | 200 | 3.5 | 8.7 | 0.01 | 0.24 | 0.24 | 92 | 1005.6 |
| 20260506224524 | 59 | 147 | 3.5 | 8.7 | 0.03 | 0.24 | 0.24 | 92 | 1005.5 |
| 20260506224009 | 59 | 213 | 3.5 | 7.8 | 0.04 | 0.24 | 0.24 | 92 | 1005.5 |
| 20260506223510 | 59 | 242 | 3.5 | 7.8 | 0.05 | 0.24 | 0.24 | 92 | 1005.5 |
| 20260506223008 | 59 | 172 | 3.5 | 9.6 | 0.05 | 0.24 | 0.24 | 92 | 1005.6 |
| 20260506222507 | 59 | 191 | 4.3 | 10.4 | 0.07 | 0.24 | 0.24 | 92 | 1005.6 |
| 20260506222009 | 59 | 180 | 4.3 | 12.2 | 0.09 | 0.24 | 0.24 | 92 | 1005.6 |
| 20260506221513 | 59 | 175 | 4.3 | 12.2 | 0.10 | 0.24 | 0.24 | 92 | 1005.5 |
| 20260506221008 | 59 | 194 | 5.2 | 8.7 | 0.11 | 0.24 | 0.24 | 92 | 1005.6 |
| 20260506220508 | 59 | 197 | 3.5 | 13.9 | 0.12 | 0.24 | 0.24 | 93 | 1005.6 |
| 20260506220028 | 59 | 238 | 5.2 | 13.9 | 0.12 | 0.24 | 0.24 | 93 | 1005.6 |
| 20260506215509 | 59 | 199 | 3.5 | 9.6 | 0.11 | 0.23 | 0.23 | 93 | 1005.6 |
| 20260506215011 | 59 | 186 | 3.5 | 10.4 | 0.11 | 0.23 | 0.23 | 92 | 1005.6 |
| 20260506214526 | 59 | 186 | 3.5 | 10.4 | 0.09 | 0.21 | 0.21 | 92 | 1005.5 |
| 20260506214010 | 59 | 208 | 3.5 | 7.0 | 0.08 | 0.20 | 0.20 | 92 | 1005.6 |
| 20260506213510 | 59 | 180 | 3.5 | 8.7 | 0.07 | 0.19 | 0.19 | 92 | 1005.7 |
| 20260506213024 | 59 | 172 | 3.5 | 9.6 | 0.07 | 0.19 | 0.19 | 92 | 1005.7 |
| 20260506212511 | 59 | 196 | 3.5 | 9.6 | 0.06 | 0.17 | 0.17 | 92 | 1005.7 |
| 20260506212013 | 59 | 158 | 5.2 | 9.6 | 0.04 | 0.15 | 0.15 | 92 | 1005.8 |
| 20260506211515 | 59 | 198 | 6.1 | 9.6 | 0.03 | 0.14 | 0.14 | 92 | 1005.8 |
| 20260506211007 | 59 | 192 | 4.3 | 9.6 | 0.02 | 0.13 | 0.13 | 91 | 1005.8 |
| 20260506210509 | 59 | 209 | 5.2 | 10.4 | 0.01 | 0.12 | 0.12 | 91 | 1005.8 |
| 20260506210020 | 59 | 196 | 5.2 | 10.4 | 0.02 | 0.12 | 0.12 | 91 | 1005.8 |
| 20260506205509 | 59 | 217 | 6.1 | 10.4 | 0.02 | 0.12 | 0.12 | 91 | 1005.8 |
| 20260506205008 | 59 | 192 | 3.5 | 11.3 | 0.02 | 0.12 | 0.12 | 91 | 1005.8 |
| 20260506204526 | 59 | 170 | 5.2 | 11.3 | 0.02 | 0.12 | 0.12 | 91 | 1005.9 |
| 20260506204010 | 59 | 172 | 4.3 | 8.7 | 0.03 | 0.12 | 0.12 | 91 | 1005.9 |
| 20260506203509 | 59 | 204 | 4.3 | 8.7 | 0.03 | 0.12 | 0.12 | 91 | 1005.9 |
| 20260506203026 | 59 | 153 | 3.5 | 10.4 | 0.03 | 0.12 | 0.12 | 91 | 1005.9 |
| 20260506202514 | 59 | 179 | 5.2 | 10.4 | 0.02 | 0.11 | 0.11 | 91 | 1006.0 |
| 20260506202011 | 59 | 186 | 2.6 | 12.2 | 0.03 | 0.11 | 0.11 | 91 | 1006.0 |
| 20260506201540 | 59 | 207 | 5.2 | 12.2 | 0.03 | 0.11 | 0.11 | 91 | 1006.2 |
| 20260506201008 | 59 | 200 | 3.5 | 11.3 | 0.03 | 0.11 | 0.11 | 91 | 1006.1 |
| 20260506200507 | 60 | 195 | 5.2 | 13.0 | 0.03 | 0.11 | 0.11 | 91 | 1006.2 |
| 20260506200024 | 60 | 189 | 3.5 | 13.0 | 0.03 | 0.10 | 0.10 | 91 | 1006.2 |
| 20260506195508 | 60 | 161 | 2.6 | 9.6 | 0.04 | 0.10 | 0.10 | 91 | 1006.4 |
| 20260506195013 | 60 | 161 | 4.3 | 13.0 | 0.04 | 0.10 | 0.10 | 91 | 1006.3 |
| 20260506194520 | 60 | 163 | 6.1 | 13.0 | 0.04 | 0.10 | 0.10 | 90 | 1006.4 |
| 20260506194017 | 60 | 198 | 6.1 | 10.4 | 0.03 | 0.09 | 0.09 | 90 | 1006.5 |
| 20260506193511 | 60 | 148 | 4.3 | 13.9 | 0.04 | 0.09 | 0.09 | 90 | 1006.6 |
| 20260506193025 | 60 | 223 | 7.0 | 13.9 | 0.04 | 0.09 | 0.09 | 90 | 1006.6 |
| 20260506192510 | 60 | 171 | 5.2 | 16.5 | 0.04 | 0.09 | 0.09 | 91 | 1006.5 |
| 20260506192013 | 60 | 142 | 5.2 | 17.4 | 0.03 | 0.08 | 0.08 | 91 | 1006.6 |
| 20260506191528 | 60 | 146 | 8.7 | 17.4 | 0.03 | 0.08 | 0.08 | 90 | 1006.7 |
| 20260506191009 | 60 | 173 | 4.3 | 17.4 | 0.03 | 0.08 | 0.08 | 90 | 1006.8 |
| 20260506190508 | 60 | 162 | 4.3 | 17.4 | 0.03 | 0.08 | 0.08 | 90 | 1006.9 |
| 20260506190028 | 60 | 198 | 4.3 | 9.6 | 0.02 | 0.07 | 0.07 | 90 | 1006.9 |
| 20260506185507 | 60 | 207 | 4.3 | 10.4 | 0.01 | 0.06 | 0.06 | 89 | 1007.1 |
| 20260506185007 | 60 | 186 | 7.0 | 12.2 | 0.02 | 0.06 | 0.06 | 89 | 1007.0 |
| 20260506184517 | 60 | 186 | 5.2 | 13.9 | 0.02 | 0.06 | 0.06 | 89 | 1007.0 |
| 20260506184008 | 60 | 200 | 5.2 | 13.9 | 0.02 | 0.06 | 0.06 | 89 | 1007.1 |
| 20260506183510 | 61 | 210 | 5.2 | 11.3 | 0.01 | 0.05 | 0.05 | 88 | 1007.0 |
| 20260506183022 | 61 | 197 | 4.3 | 11.3 | 0.02 | 0.05 | 0.05 | 88 | 1007.0 |
| 20260506182507 | 61 | 171 | 1.7 | 10.4 | 0.03 | 0.05 | 0.05 | 88 | 1007.0 |
| 20260506182016 | 61 | 236 | 3.5 | 13.0 | 0.03 | 0.05 | 0.05 | 87 | 1007.2 |
| 20260506181526 | 61 | 222 | 5.2 | 13.9 | 0.04 | 0.05 | 0.05 | 87 | 1007.2 |
| 20260506181010 | 61 | 205 | 6.1 | 13.9 | 0.05 | 0.05 | 0.05 | 87 | 1007.0 |
| 20260506180509 | 61 | 188 | 6.1 | 13.9 | 0.05 | 0.05 | 0.05 | 86 | 1007.0 |
| 20260506180028 | 61 | 187 | 7.0 | 13.9 | 0.05 | 0.05 | 0.05 | 86 | 1006.7 |
| 20260506175511 | 61 | 201 | 6.1 | 12.2 | 0.05 | 0.05 | 0.05 | 86 | 1006.8 |
| 20260506175008 | 62 | 188 | 6.1 | 12.2 | 0.04 | 0.04 | 0.04 | 86 | 1007.0 |
| 20260506174516 | 62 | 182 | 4.3 | 8.7 | 0.04 | 0.04 | 0.04 | 86 | 1007.1 |
| 20260506174007 | 62 | 194 | 3.5 | 9.6 | 0.04 | 0.04 | 0.04 | 86 | 1007.0 |
| 20260506173507 | 62 | 194 | 3.5 | 9.6 | 0.04 | 0.04 | 0.04 | 85 | 1007.2 |
| 20260506173021 | 63 | 191 | 3.5 | 10.4 | 0.03 | 0.03 | 0.03 | 84 | 1007.3 |
| 20260506172509 | 63 | 103 | 4.3 | 13.0 | 0.02 | 0.02 | 0.02 | 83 | 1007.5 |
| 20260506172011 | 64 | 198 | 3.5 | 13.0 | 0.02 | 0.02 | 0.02 | 81 | 1007.7 |
| 20260506171535 | 65 | 150 | 3.5 | 11.3 | 0.01 | 0.01 | 0.01 | 79 | 1007.6 |
| 20260506171008 | 65 | 169 | 5.2 | 11.3 | 0.00 | 0.00 | 0.00 | 77 | 1007.9 |
| 20260506170512 | 66 | 227 | 5.2 | 11.3 | 0.00 | 0.00 | 0.00 | 76 | 1007.9 |
| 20260506170027 | 66 | 175 | 5.2 | 8.7 | 0.00 | 0.00 | 0.00 | 76 | 1007.7 |
| 20260506165508 | 67 | 196 | 4.3 | 11.3 | 0.00 | 0.00 | 0.00 | 74 | 1007.7 |
| 20260506165010 | 67 | 219 | 6.1 | 11.3 | 0.00 | 0.00 | 0.00 | 73 | 1007.7 |
| 20260506164527 | 67 | 162 | 4.3 | 9.6 | 0.00 | 0.00 | 0.00 | 72 | 1007.7 |
| 20260506164016 | 67 | 203 | 3.5 | 7.8 | 0.00 | 0.00 | 0.00 | 72 | 1007.6 |
| 20260506163513 | 68 | 195 | 4.3 | 11.3 | 0.00 | 0.00 | 0.00 | 72 | 1007.7 |
| 20260506163030 | 68 | 217 | 3.5 | 11.3 | 0.00 | 0.00 | 0.00 | 71 | 1007.7 |
| 20260506162506 | 68 | 155 | 5.2 | 11.3 | 0.00 | 0.00 | 0.00 | 70 | 1007.6 |
| 20260506162012 | 68 | 164 | 3.5 | 12.2 | 0.00 | 0.00 | 0.00 | 69 | 1007.7 |
| 20260506161524 | 68 | 180 | 5.2 | 12.2 | 0.00 | 0.00 | 0.00 | 69 | 1007.8 |
| 20260506161011 | 68 | 143 | 4.3 | 8.7 | 0.00 | 0.00 | 0.00 | 70 | 1007.9 |
| 20260506160512 | 68 | 189 | 3.5 | 9.6 | 0.00 | 0.00 | 0.00 | 70 | 1008.0 |
| 20260506160030 | 67 | 162 | 3.5 | 9.6 | 0.00 | 0.00 | 0.00 | 71 | 1008.1 |
| 20260506155509 | 67 | 159 | 3.5 | 9.6 | 0.00 | 0.00 | 0.00 | 71 | 1008.1 |
| 20260506155013 | 67 | 217 | 3.5 | 9.6 | 0.00 | 0.00 | 0.00 | 71 | 1008.3 |
| 20260506154536 | 66 | 197 | 6.1 | 8.7 | 0.00 | 0.00 | 0.00 | 72 | 1008.4 |
| 20260506154019 | 66 | 173 | 2.6 | 11.3 | 0.00 | 0.00 | 0.00 | 73 | 1008.5 |
| 20260506153511 | 66 | 156 | 3.5 | 12.2 | 0.00 | 0.00 | 0.00 | 72 | 1008.5 |
| 20260506153027 | 66 | 150 | 5.2 | 12.2 | 0.00 | 0.00 | 0.00 | 73 | 1008.6 |
| 20260506152510 | 66 | 173 | 4.3 | 7.0 | 0.00 | 0.00 | 0.00 | 73 | 1008.7 |
| 20260506152011 | 65 | 155 | 2.6 | 9.6 | 0.00 | 0.00 | 0.00 | 74 | 1008.7 |
| 20260506151523 | 65 | 222 | 4.3 | 8.7 | 0.00 | 0.00 | 0.00 | 73 | 1008.8 |
| 20260506151010 | 65 | 211 | 4.3 | 10.4 | 0.00 | 0.00 | 0.00 | 74 | 1008.8 |
| 20260506150510 | 65 | 183 | 5.2 | 10.4 | 0.00 | 0.00 | 0.00 | 74 | 1008.8 |
| 20260506150026 | 65 | 184 | 4.3 | 10.4 | 0.00 | 0.00 | 0.00 | 75 | 1009.0 |
| 20260506145507 | 64 | 165 | 5.2 | 8.7 | 0.00 | 0.00 | 0.00 | 75 | 1009.0 |
| 20260506145009 | 64 | 197 | 5.2 | 8.7 | 0.00 | 0.00 | 0.00 | 75 | 1009.0 |
| 20260506144527 | 64 | 164 | 3.5 | 8.7 | 0.00 | 0.00 | 0.00 | 75 | 1008.9 |
| 20260506144012 | 64 | 200 | 2.6 | 14.8 | 0.00 | 0.00 | 0.00 | 75 | 1009.0 |
| 20260506143511 | 64 | 178 | 6.1 | 14.8 | 0.00 | 0.00 | 0.00 | 75 | 1009.0 |
| 20260506143028 | 64 | 222 | 6.1 | 12.2 | 0.00 | 0.00 | 0.00 | 75 | 1009.0 |
| 20260506142511 | 64 | 182 | 6.1 | 12.2 | 0.00 | 0.00 | 0.00 | 75 | 1009.0 |
| 20260506142012 | 64 | 203 | 6.1 | 11.3 | 0.00 | 0.00 | 0.00 | 75 | 1009.0 |
| 20260506141528 | 64 | 143 | 7.0 | 11.3 | 0.00 | 0.00 | 0.00 | 75 | 1008.9 |
| 20260506140511 | 63 | 173 | 5.2 | 12.2 | 0.00 | 0.00 | 0.00 | 76 | 1008.9 |
| 20260506140024 | 63 | 179 | 5.2 | 13.9 | 0.00 | 0.00 | 0.00 | 76 | 1009.0 |
| 20260506135507 | 63 | 212 | 7.8 | 21.7 | 0.00 | 0.00 | 0.00 | 76 | 1008.9 |
| 20260506135009 | 63 | 191 | 5.2 | 21.7 | 0.00 | 0.00 | 0.00 | 76 | 1008.7 |
| 20260506134524 | 63 | 208 | 5.2 | 13.9 | 0.00 | 0.00 | 0.00 | 77 | 1008.7 |
| 20260506134013 | 63 | 192 | 5.2 | 13.9 | 0.00 | 0.00 | 0.00 | 78 | 1008.7 |
| 20260506133511 | 62 | 184 | 6.1 | 12.2 | 0.00 | 0.00 | 0.00 | 77 | 1008.8 |
| 20260506133024 | 62 | 155 | 7.0 | 12.2 | 0.00 | 0.00 | 0.00 | 77 | 1008.8 |
| 20260506132510 | 62 | 167 | 3.5 | 10.4 | 0.00 | 0.00 | 0.00 | 78 | 1008.8 |
| 20260506132015 | 62 | 105 | 3.5 | 13.0 | 0.00 | 0.00 | 0.00 | 78 | 1008.7 |
| 20260506131526 | 62 | 209 | 6.1 | 13.0 | 0.00 | 0.00 | 0.00 | 78 | 1008.8 |
| 20260506131010 | 62 | 205 | 5.2 | 9.6 | 0.00 | 0.00 | 0.00 | 78 | 1008.9 |
| 20260506130520 | 62 | 159 | 5.2 | 9.6 | 0.00 | 0.00 | 0.00 | 78 | 1008.9 |
| 20260506130024 | 62 | 171 | 3.5 | 11.3 | 0.00 | 0.00 | 0.00 | 78 | 1008.9 |
| 20260506125507 | 61 | 168 | 5.2 | 11.3 | 0.00 | 0.00 | 0.00 | 79 | 1008.9 |
| 20260506125010 | 61 | 180 | 3.5 | 10.4 | 0.00 | 0.00 | 0.00 | 79 | 1008.9 |
| 20260506124524 | 61 | 169 | 4.3 | 10.4 | 0.00 | 0.00 | 0.00 | 80 | 1009.1 |
| 20260506124010 | 61 | 198 | 5.2 | 8.7 | 0.00 | 0.00 | 0.00 | 79 | 1009.3 |
| 20260506123511 | 61 | 169 | 4.3 | 9.6 | 0.00 | 0.00 | 0.00 | 80 | 1009.2 |
| 20260506123027 | 61 | 209 | 4.3 | 9.6 | 0.00 | 0.00 | 0.00 | 80 | 1009.4 |
| 20260506122511 | 60 | 212 | 4.3 | 8.7 | 0.00 | 0.00 | 0.00 | 80 | 1009.4 |
| 20260506122010 | 60 | 205 | 2.6 | 12.2 | 0.00 | 0.00 | 0.00 | 80 | 1009.4 |
| 20260506121528 | 60 | 237 | 4.3 | 12.2 | 0.00 | 0.00 | 0.00 | 81 | 1009.4 |
| 20260506121011 | 60 | 202 | 3.5 | 7.0 | 0.00 | 0.00 | 0.00 | 81 | 1009.4 |
| 20260506120514 | 60 | 213 | 3.5 | 13.9 | 0.00 | 0.00 | 0.00 | 81 | 1009.3 |
| 20260506120032 | 60 | 229 | 3.5 | 13.9 | 0.00 | 0.00 | 0.00 | 81 | 1009.4 |
| 20260506115510 | 60 | 167 | 6.1 | 12.2 | 0.00 | 0.00 | 0.00 | 81 | 1009.5 |
| 20260506115013 | 59 | 243 | 5.2 | 11.3 | 0.00 | 0.00 | 0.00 | 81 | 1009.3 |
| 20260506114526 | 59 | 190 | 6.1 | 10.4 | 0.00 | 0.00 | 0.00 | 82 | 1009.3 |
| 20260506114009 | 59 | 252 | 3.5 | 8.7 | 0.00 | 0.00 | 0.00 | 82 | 1009.3 |
| 20260506113511 | 59 | 173 | 4.3 | 10.4 | 0.00 | 0.00 | 0.00 | 82 | 1009.3 |
| 20260506113028 | 59 | 173 | 3.5 | 10.4 | 0.00 | 0.00 | 0.00 | 82 | 1009.5 |
| 20260506112510 | 59 | 217 | 4.3 | 11.3 | 0.00 | 0.00 | 0.00 | 82 | 1009.4 |
| 20260506112010 | 59 | 205 | 4.3 | 11.3 | 0.00 | 0.00 | 0.00 | 82 | 1009.4 |
| 20260506111529 | 59 | 217 | 3.5 | 9.6 | 0.00 | 0.00 | 0.00 | 82 | 1009.4 |
| 20260506111010 | 59 | 205 | 3.5 | 10.4 | 0.00 | 0.00 | 0.00 | 82 | 1009.4 |
| 20260506110507 | 58 | 137 | 3.5 | 10.4 | 0.00 | 0.00 | 0.00 | 83 | 1009.4 |
| 20260506110028 | 58 | 207 | 3.5 | 9.6 | 0.00 | 0.00 | 0.00 | 83 | 1009.7 |
| 20260506105512 | 58 | 173 | 6.1 | 10.4 | 0.00 | 0.00 | 0.00 | 84 | 1009.7 |
| 20260506105011 | 57 | 173 | 4.3 | 10.4 | 0.00 | 0.00 | 0.00 | 84 | 1009.7 |
| 20260506104528 | 57 | 209 | 4.3 | 9.6 | 0.00 | 0.00 | 0.00 | 84 | 1009.7 |
| 20260506104010 | 57 | 186 | 4.3 | 10.4 | 0.00 | 0.00 | 0.00 | 84 | 1009.7 |
| 20260506103508 | 57 | 178 | 3.5 | 10.4 | 0.00 | 0.00 | 0.00 | 84 | 1009.8 |
| 20260506103028 | 57 | 204 | 5.2 | 8.7 | 0.00 | 0.00 | 0.00 | 84 | 1009.7 |
| 20260506102510 | 57 | 204 | 5.2 | 8.7 | 0.00 | 0.00 | 0.00 | 84 | 1009.6 |
| 20260506102012 | 57 | 184 | 5.2 | 8.7 | 0.00 | 0.00 | 0.00 | 84 | 1009.5 |
| 20260506101528 | 57 | 193 | 3.5 | 7.0 | 0.00 | 0.00 | 0.00 | 84 | 1009.3 |
| 20260506101015 | 57 | 158 | 3.5 | 9.6 | 0.00 | 0.00 | 0.00 | 84 | 1009.4 |
| 20260506100508 | 57 | 211 | 4.3 | 9.6 | 0.00 | 0.00 | 0.00 | 84 | 1009.5 |
| 20260506100026 | 57 | 198 | 4.3 | 8.7 | 0.00 | 0.00 | 0.00 | 84 | 1009.5 |
| 20260506095506 | 57 | 221 | 2.6 | 7.8 | 0.00 | 0.00 | 0.00 | 84 | 1009.4 |
| 20260506095011 | 57 | 208 | 4.3 | 9.6 | 0.00 | 0.00 | 0.00 | 83 | 1009.5 |
| 20260506094520 | 57 | 217 | 4.3 | 9.6 | 0.00 | 0.00 | 0.00 | 84 | 1009.3 |
| 20260506094003 | 57 | 195 | 3.5 | 7.0 | 0.00 | 0.00 | 0.00 | 83 | 1009.4 |
| 20260506093504 | 57 | 188 | 2.6 | 7.0 | 0.00 | 0.00 | 0.00 | 83 | 1009.5 |
| 20260506093012 | 57 | 223 | 0.9 | 7.0 | 0.00 | 0.00 | 0.00 | 83 | 1009.6 |
| 20260506092505 | 57 | 238 | 2.6 | 8.7 | 0.00 | 0.00 | 0.00 | 83 | 1009.5 |
| 20260506092007 | 57 | 188 | 2.6 | 8.7 | 0.00 | 0.00 | 0.00 | 82 | 1009.5 |
| 20260506091508 | 57 | 178 | 2.6 | 7.8 | 0.00 | 0.00 | 0.00 | 82 | 1009.4 |
| 20260506091008 | 57 | 193 | 2.6 | 9.6 | 0.00 | 0.00 | 0.00 | 82 | 1009.4 |
| 20260506090506 | 58 | 211 | 3.5 | 9.6 | 0.00 | 0.00 | 0.00 | 82 | 1009.4 |
| 20260506090016 | 58 | 183 | 2.6 | 8.7 | 0.00 | 0.00 | 0.00 | 81 | 1009.5 |
| 20260506085506 | 58 | 192 | 3.5 | 9.6 | 0.00 | 0.00 | 0.00 | 81 | 1009.4 |
| 20260506085007 | 58 | 167 | 3.5 | 9.6 | 0.00 | 0.00 | 0.00 | 81 | 1009.4 |
| 20260506084520 | 58 | 190 | 2.6 | 7.8 | 0.00 | 0.00 | 0.00 | 81 | 1009.4 |
| 20260506083509 | 58 | 213 | 4.3 | 7.8 | 0.00 | 0.00 | 0.00 | 80 | 1009.6 |
| 20260506082508 | 59 | 204 | 2.6 | 10.4 | 0.00 | 0.00 | 0.00 | 79 | 1009.5 |
| 20260506082007 | 59 | 200 | 2.6 | 8.7 | 0.00 | 0.00 | 0.00 | 79 | 1009.6 |
| 20260506081508 | 59 | 175 | 3.5 | 9.6 | 0.00 | 0.00 | 0.00 | 79 | 1009.5 |
| 20260506081011 | 59 | 201 | 5.2 | 11.3 | 0.00 | 0.00 | 0.00 | 79 | 1009.4 |
| 20260506080507 | 59 | 185 | 5.2 | 11.3 | 0.00 | 0.00 | 0.00 | 79 | 1009.5 |
| 20260506073514 | 59 | 177 | 2.6 | 9.6 | 0.00 | 0.00 | 0.00 | 78 | 1009.5 |
| 20260506073024 | 59 | 200 | 4.3 | 8.7 | 0.00 | 0.00 | 0.00 | 78 | 1009.5 |
| 20260506072509 | 59 | 207 | 4.3 | 7.8 | 0.00 | 0.00 | 0.00 | 77 | 1009.6 |
| 20260506072015 | 60 | 174 | 3.5 | 7.8 | 0.00 | 0.00 | 0.00 | 77 | 1009.5 |
| 20260506071508 | 60 | 186 | 3.5 | 8.7 | 0.00 | 0.00 | 0.00 | 77 | 1009.5 |
| 20260506071005 | 60 | 194 | 3.5 | 8.7 | 0.00 | 0.00 | 0.00 | 76 | 1009.4 |
| 20260506070503 | 60 | 187 | 4.3 | 8.7 | 0.00 | 0.00 | 0.00 | 76 | 1009.4 |
| 20260506062507 | 61 | 202 | 6.1 | 8.7 | 0.00 | 0.00 | 0.00 | 72 | 1009.0 |
| 20260506062011 | 61 | 184 | 4.3 | 8.7 | 0.00 | 0.00 | 0.00 | 72 | 1009.1 |
| 20260506061525 | 61 | 156 | 3.5 | 8.7 | 0.00 | 0.00 | 0.00 | 71 | 1009.1 |
| 20260506061010 | 61 | 193 | 4.3 | 7.8 | 0.00 | 0.00 | 0.00 | 71 | 1009.1 |
| 20260506060503 | 61 | 181 | 3.5 | 7.8 | 0.00 | 0.00 | 0.00 | 71 | 1009.1 |
| 20260506051008 | 62 | 154 | 4.3 | 12.2 | 0.00 | 0.00 | 0.00 | 68 | 1009.3 |
| 20260506050509 | 62 | 186 | 6.1 | 11.3 | 0.00 | 0.00 | 0.00 | 68 | 1009.2 |
| 20260506045005 | 62 | 180 | 3.5 | 9.6 | 0.00 | 0.00 | 0.00 | 68 | 1009.4 |